GW5547 Weather Reports


time (UTC)temp
C
wind
direction
speed
KPH
gust
KPH
rain 1hr
cm
rain 24hr
cm
rain mn
cm
humidity
%
barometer
mb
20260503181549 25 314 4.8 12.9 0.00 0.00 0.00 43 1010.9
20260503180041 23 317 3.2 11.3 0.00 0.00 0.00 48 1011.0
20260503174529 23 315 3.2 12.9 0.00 0.00 0.00 53 1011.1
20260503173029 22 315 3.2 8.0 0.00 0.00 0.00 58 1011.3
20260503171528 20 0 3.2 9.7 0.00 0.00 0.00 62 1011.4
20260503081528 13 0 0.0 1.6 0.00 0.00 0.00 90 1012.3
20260503071528 13 0 0.0 1.6 0.00 0.00 0.00 90 1012.5
20260503054537 15 0 0.0 1.6 0.00 0.00 0.00 84 1012.4
20260503053028 16 0 0.0 1.6 0.00 0.00 0.00 82 1012.2
20260503051530 16 0 0.0 3.2 0.00 0.00 0.00 82 1012.1
20260503050030 16 0 0.0 1.6 0.00 0.00 0.00 82 1012.1
20260503044531 16 0 0.0 0.0 0.00 0.00 0.00 82 1012.2
20260503043028 16 0 0.0 1.6 0.00 0.00 0.00 81 1012.4
20260503041530 16 0 0.0 1.6 0.00 0.00 0.00 81 1012.4
20260503040035 16 0 0.0 0.0 0.00 0.00 0.00 82 1012.5
20260503034528 17 0 0.0 1.6 0.00 0.00 0.00 81 1012.3
20260503033030 17 0 0.0 0.0 0.00 0.00 0.00 81 1012.3
20260503031530 17 0 0.0 1.6 0.00 0.00 0.00 81 1012.3
20260503030034 17 0 0.0 1.6 0.00 0.00 0.00 78 1012.3
20260503024529 17 0 0.0 6.4 0.00 0.00 0.00 77 1012.4
20260503023028 18 0 0.0 3.2 0.00 0.00 0.00 73 1012.3
20260503021528 18 185 1.6 9.7 0.00 0.00 0.00 71 1012.1
20260503020028 19 304 0.0 1.6 0.00 0.00 0.00 73 1011.8
20260503014531 20 0 0.0 1.6 0.00 0.00 0.00 71 1011.6
20260503013029 20 0 0.0 1.6 0.00 0.00 0.00 68 1011.5
20260503011533 20 0 0.0 1.6 0.00 0.00 0.00 67 1011.5
20260503010033 20 0 0.0 3.2 0.00 0.00 0.00 67 1011.6
20260503004528 20 0 0.0 3.2 0.00 0.00 0.00 66 1011.4
20260503003028 20 304 0.0 4.8 0.00 0.00 0.00 68 1011.5
20260503001528 20 304 3.2 11.3 0.00 0.00 0.00 67 1011.4
20260503000030 20 308 3.2 6.4 0.00 0.00 0.00 66 1011.5
20260502234535 20 0 0.0 9.7 0.00 0.00 0.00 66 1011.6
20260502233030 20 314 0.0 9.7 0.00 0.00 0.00 66 1011.6
20260502231530 20 299 3.2 8.0 0.00 0.00 0.00 67 1011.8
20260502230028 19 290 4.8 11.3 0.00 0.00 0.00 67 1012.1
20260502224527 19 312 3.2 12.9 0.00 0.00 0.00 67 1012.2
20260502223031 18 288 3.2 12.9 0.00 0.00 0.00 67 1012.3
20260502221529 18 318 3.2 12.9 0.00 0.00 0.00 69 1012.5
20260502220032 18 0 1.6 8.0 0.00 0.00 0.00 69 1012.8
20260502214528 17 0 3.2 8.0 0.00 0.00 0.00 71 1013.0
20260502213035 17 332 1.6 12.9 0.00 0.00 0.00 72 1013.0
20260502211527 16 289 3.2 8.0 0.00 0.00 0.00 73 1013.2
20260502210030 16 321 3.2 12.9 0.00 0.00 0.00 76 1013.5
20260502204530 16 0 1.6 8.0 0.00 0.00 0.00 75 1013.8
20260502203030 15 0 1.6 6.4 0.00 0.00 0.00 77 1014.0
20260502201537 15 0 0.0 3.2 0.00 0.00 0.00 78 1014.3
20260502200029 15 0 0.0 6.4 0.00 0.00 0.00 79 1014.4
20260502194540 14 0 1.6 11.3 0.00 0.00 0.00 81 1014.6
20260502193032 13 309 0.0 11.3 0.00 0.00 0.00 84 1014.7
20260502191537 13 288 3.2 6.4 0.00 0.00 0.00 84 1014.8
20260502190028 12 286 1.6 6.4 0.00 0.00 0.00 87 1014.7
20260502184535 12 319 1.6 8.0 0.00 0.00 0.00 90 1014.9
20260502183028 11 329 1.6 8.0 0.00 0.00 0.00 91 1014.8